Probability
0 0 0 0 0 0 0 0 0 0 0 0 0 0 0 0 0 0 0 0 0 0 0 0 0 0 0 0 1 1 1 3 6 7 7 8 11 12 10 6 3 1 0 0
0 0 0 0 0 0 0 0 0 0 0 0 0 0 0 0 0 0 0 0 0 0 0 0 0 0 0 0 0 0 1 3 5 5 4 5 6 7 6 4 1 0 0 0
0 0 0 0 0 0 0 0 0 0 0 0 0 0 0 0 0 0 0 0 0 0 0 0 0 0 0 0 0 0 0 1 2 2 1 1 1 2 3 2 1 0 0 0
0 0 0 0 0 0 0 0 0 0 0 0 0 0 0 0 0 0 0 0 0 0 0 0 0 0 0 0 0 0 0 0 0 0 0 0 0 0 1 1 1 0 0 0
0 0 0 0 0 0 0 0 0 0 0 0 0 0 0 0 0 0 0 0 0 0 0 0 0 0 0 0 0 0 0 0 0 0 0 0 0 0 0 0 0 0 0 0
0 0 0 0 0 0 0 0 0 0 0 0 0 0 0 0 0 0 0 0 0 0 0 0 0 0 0 0 0 0 0 0 0 0 0 0 0 0 0 0 0 0 0 0
0 0 0 0 0 0 0 0 0 0 0 0 0 0 0 0 0 0 0 0 0 0 0 0 0 0 0 0 0 0 0 0 0 0 0 0 0 0 0 0 0 0 0 0
0 0 0 0 0 0 0 0 0 0 0 0 0 0 0 0 0 0 0 0 0 0 0 0 0 0 0 0 0 0 0 0 0 0 0 0 0 0 0 0 0 0 0 0
0 0 0 0 0 0 0 0 0 0 0 0 0 0 0 0 0 0 0 0 0 0 0 0 0 0 0 0 0 0 0 0 0 0 0 0 0 0 0 0 0 0 0 0
0 0 0 0 0 0 0 0 0 0 0 0 0 0 0 0 0 0 0 0 0 0 0 0 0 0 0 0 0 0 0 0 0 0 0 0 0 0 0 0 0 0 0 0
0 0 0 0 0 0 0 0 0 0 0 0 0 0 0 0 0 0 0 0 0 0 0 0 0 0 0 0 0 0 0 0 0 0 0 0 0 0 0 0 0 0 0 0
0 0 0 0 0 0 0 0 0 0 0 0 0 0 0 0 0 0 0 0 0 0 0 0 0 0 0 0 0 0 0 0 0 0 0 0 0 0 0 0 0 0 0 0
0 0 0 0 0 0 0 0 0 0 0 0 0 0 0 0 0 0 0 0 0 0 0 0 0 0 0 0 0 0 0 0 0 0 0 0 0 0 0 0 0 0 0 0
0 0 0 0 0 0 0 0 0 0 0 0 0 0 0 0 0 0 0 0 0 0 0 0 0 0 0 0 0 0 0 0 0 0 0 0 0 0 0 0 0 0 0 0
0 0 0 0 0 0 0 0 0 0 0 0 0 0 0 0 0 0 0 0 0 0 0 0 0 0 0 0 0 0 0 0 0 0 0 0 0 0 0 0 0 0 0 0
0 0 0 0 0 0 0 0 0 0 0 0 0 0 0 0 0 0 0 0 0 0 0 0 0 0 0 0 0 0 0 0 0 0 0 0 0 0 0 0 0 0 0 0
0 0 0 0 0 0 0 0 0 0 0 0 0 0 0 0 0 0 0 0 0 0 0 0 0 0 0 0 0 0 0 0 0 0 0 0 0 0 0 0 0 0 0 0
0 0 0 0 0 0 0 0 0 0 0 0 0 0 0 0 0 0 0 0 0 0 0 0 0 0 0 0 0 0 0 0 0 0 0 0 0 0 0 0 0 0 0 0
0 0 0 0 0 0 0 0 0 0 0 0 0 0 0 0 0 0 0 0 0 0 0 0 0 0 0 0 0 0 0 0 0 0 0 0 0 0 0 0 0 0 0 0
0 0 0 0 0 0 0 0 0 0 0 0 0 0 0 0 0 0 0 0 0 0 0 0 0 0 0 0 0 0 0 0 0 0 0 0 0 0 0 0 0 0 0 0
0 0 0 0 0 0 0 0 0 0 0 0 0 0 0 0 0 0 0 0 0 0 0 0 0 0 0 0 0 0 0 0 0 0 0 0 0 0 0 0 0 0 0 0
0 0 0 0 0 0 0 0 0 0 0 0 0 0 0 0 0 0 0 0 0 0 0 0 0 0 0 0 0 0 0 0 0 0 0 0 0 0 0 0 0 0 0 0
0 0 0 0 0 0 0 0 0 0 0 0 0 0 0 0 0 0 0 0 0 0 0 0 0 0 0 0 0 0 0 0 0 0 0 0 0 0 0 0 0 0 0 0
0 0 0 0 0 0 0 0 0 0 0 0 0 0 0 0 0 0 0 0 0 0 0 0 0 0 0 0 0 0 0 0 0 0 0 0 0 0 0 0 0 0 0 0
0 0 0 0 0 0 0 0 0 0 0 0 0 0 0 0 0 0 0 0 0 0 0 0 0 0 0 0 0 0 0 0 0 0 0 0 0 0 0 0 0 0 0 0
0 0 0 0 0 0 0 0 0 0 0 0 0 0 0 0 0 0 0 0 0 0 0 0 0 0 0 0 0 0 0 0 0 0 0 0 0 0 0 0 0 0 0 0
Wind_Speed
5 5 7 8 10 8 5 5 6 2 5 4 7 10 11 9 9 9 9 9 10 10 10 9 10 11 10 10 11 12 12 12 10 8 9 9 8 7 6 7 9 11 11 12
4 8 8 5 3 4 5 5 6 6 2 2 6 12 12 12 13 12 12 11 10 9 8 8 9 10 11 11 11 11 12 12 12 10 8 7 6 6 6 6 8 11 12 13
9 3 6 6 3 3 6 6 7 7 3 4 5 10 12 12 15 13 11 10 10 10 9 7 7 8 10 11 11 10 10 11 11 10 5 4 4 4 6 7 8 10 12 13
9 6 3 4 7 6 6 5 6 5 4 5 4 8 5 6 7 9 10 9 10 10 8 7 5 6 7 9 8 9 8 8 9 10 8 9 9 10 10 7 7 7 10 11
7 6 7 7 7 8 2 4 1 2 4 6 5 8 8 7 9 9 10 10 9 7 4 3 2 3 4 5 6 6 7 7 7 8 9 9 8 7 5 5 7 8 8 10
4 1 3 3 2 6 7 4 3 0 2 8 7 8 10 8 10 7 8 7 5 2 1 1 2 3 3 4 4 5 6 6 7 7 8 9 9 7 6 6 7 7 5 7
6 5 2 3 5 5 6 5 2 3 5 10 6 9 10 3 3 4 4 3 3 3 2 2 2 2 3 4 4 4 5 6 6 6 7 8 8 8 8 7 7 7 6 6
10 10 14 10 9 9 10 9 9 8 7 6 3 11 8 3 3 2 2 3 4 4 3 2 2 3 4 5 5 5 5 5 6 6 6 6 7 5 5 7 6 7 6 7
7 7 9 13 7 11 9 10 7 3 4 6 8 8 5 2 3 5 6 5 5 3 3 4 3 3 4 4 5 5 5 5 5 6 6 6 6 6 6 5 5 5 5 6
3 3 3 5 2 3 4 6 5 6 6 8 10 10 9 7 11 8 5 5 4 2 3 4 3 3 3 3 4 4 5 6 5 6 6 5 6 6 5 5 5 5 5 6
5 4 3 3 10 10 7 5 6 6 6 7 7 9 2 3 3 3 1 0 1 1 2 3 3 3 3 3 3 4 4 5 5 6 6 6 6 6 6 6 6 6 5 6
5 3 5 7 6 6 9 12 11 7 7 5 5 12 2 5 5 4 3 2 1 0 1 2 3 3 3 4 4 5 5 6 6 6 6 7 7 7 7 7 7 6 6 6
5 5 3 2 3 3 6 9 11 8 4 6 8 12 1 5 4 3 2 2 1 1 1 1 2 3 4 4 4 5 6 6 6 6 6 7 7 8 8 8 7 6 6 6
4 4 7 8 3 3 4 5 6 8 8 11 15 17 8 3 5 5 5 5 3 2 2 2 3 4 4 4 4 5 6 6 6 6 7 8 9 8 8 7 7 7 7 7
5 4 5 7 6 3 4 6 8 11 12 11 12 17 17 7 8 8 7 7 6 5 5 4 4 4 4 4 5 5 5 5 5 6 7 9 7 7 7 7 6 6 7 7
6 5 4 6 8 7 9 11 12 13 13 15 17 24 14 9 9 9 8 7 6 6 6 5 5 5 5 5 5 5 5 4 4 6 8 6 6 6 6 6 6 6 6 6
5 6 4 4 3 2 11 14 15 12 12 12 18 20 10 9 8 7 6 6 6 6 7 7 7 6 5 5 4 5 5 4 4 6 6 5 5 5 5 5 6 7 7 6
4 5 3 2 3 10 11 6 12 15 16 15 14 13 8 7 8 7 4 4 5 7 8 8 7 7 6 5 4 4 4 3 4 5 5 5 5 5 5 5 6 6 5 6
7 6 4 4 6 8 9 6 6 8 9 5 7 6 5 6 6 5 3 5 5 6 6 6 6 6 6 6 5 5 4 3 4 5 5 4 4 5 5 6 6 5 5 5
10 8 6 6 6 9 8 1 2 3 6 2 2 3 5 5 3 4 7 9 8 7 6 6 6 6 6 6 5 5 5 4 4 4 4 3 3 4 5 5 4 4 4 4
7 8 12 12 9 9 7 3 2 5 5 1 1 2 3 2 5 7 7 7 6 6 7 6 6 5 6 6 5 5 4 4 4 3 1 1 2 3 3 3 3 4 4 4
9 8 10 9 11 12 3 3 4 3 1 2 1 2 4 6 7 7 7 6 6 6 6 6 5 6 5 5 4 5 5 4 2 1 1 1 2 2 3 4 4 4 4 4
7 7 5 8 7 3 3 3 2 2 1 2 3 4 5 6 8 8 8 7 5 5 5 4 4 5 5 4 3 4 5 4 2 1 1 2 2 3 3 4 5 4 4 3
4 2 3 4 4 2 1 1 1 2 3 4 4 5 6 8 9 9 8 7 6 5 5 4 4 4 4 4 4 4 5 3 1 1 1 2 3 3 3 3 3 3 3 3
5 3 4 5 4 4 4 3 2 3 4 5 6 6 7 8 10 9 8 8 6 5 4 3 3 4 4 4 4 5 5 3 0 1 1 2 2 3 3 3 3 3 2 3
5 5 4 6 4 3 5 5 5 6 7 7 7 8 7 7 9 9 8 7 6 5 3 3 3 3 3 3 4 5 6 3 1 1 1 2 2 3 3 3 4 6 5 6
Wind_Direction
182 209 204 207 215 247 305 322 310 323 122 185 243 261 264 265 256 248 246 245 246 243 236 218 203 193 190 190 190 189 190 188 188 193 196 198 200 194 191 189 187 187 184 179
154 232 230 236 238 250 266 277 286 299 131 191 266 270 268 255 250 245 245 248 250 256 252 231 206 187 185 189 192 194 194 190 191 198 199 199 194 194 195 188 190 190 185 181
201 191 211 214 201 222 243 240 253 269 286 227 266 280 247 243 233 238 240 244 251 252 255 249 215 193 184 188 191 196 198 195 193 191 185 181 185 190 195 200 199 195 188 184
229 229 173 199 207 195 243 238 234 266 302 279 227 284 258 264 251 228 228 234 243 248 249 244 220 196 187 191 186 189 195 197 192 187 192 190 197 205 205 196 194 190 189 187
214 187 176 199 205 193 191 55 87 218 248 273 246 268 263 229 248 231 217 223 238 244 242 237 194 167 159 165 171 181 189 199 196 193 194 199 209 212 202 187 184 189 192 192
228 111 180 191 150 179 124 97 76 156 237 261 213 233 270 208 221 217 209 208 221 223 179 118 99 96 108 124 148 166 183 199 198 199 197 201 210 208 204 198 190 190 190 194
211 199 173 112 113 123 144 145 177 225 221 247 189 218 255 187 157 153 163 180 189 172 175 179 167 159 159 150 156 171 186 202 201 202 205 206 210 208 209 204 195 189 189 196
205 209 180 181 173 166 192 183 178 197 222 263 219 231 250 131 111 121 193 215 209 206 194 194 190 176 170 172 174 183 194 203 202 204 211 212 212 211 215 210 199 195 195 196
219 230 167 181 179 163 176 218 219 237 272 289 260 259 279 136 237 245 243 241 242 224 195 192 187 177 168 175 184 191 194 203 207 206 207 213 213 214 217 214 203 192 189 187
255 255 123 124 110 268 215 174 164 192 207 240 260 248 244 233 226 228 237 248 257 233 193 180 178 169 165 172 181 189 195 202 208 207 206 211 215 217 216 211 211 200 191 182
211 215 147 146 192 189 184 207 199 189 187 194 259 261 185 112 127 145 181 287 320 239 182 174 170 168 169 174 183 196 210 211 209 208 208 209 213 211 212 214 210 201 194 182
181 184 213 214 211 219 204 201 195 195 221 213 237 262 110 87 84 86 60 34 19 231 204 180 173 178 194 207 209 209 215 218 216 209 209 212 211 208 210 213 207 197 193 184
140 168 197 245 214 218 230 221 214 219 209 216 228 257 91 100 86 64 24 340 302 242 212 184 200 220 228 227 223 221 222 223 218 208 210 215 215 212 212 210 202 193 189 183
128 182 206 214 166 153 209 234 227 216 223 234 237 255 264 316 336 335 327 313 298 269 258 247 245 250 249 240 235 234 232 222 214 211 215 222 222 217 213 205 197 190 185 184
151 203 227 258 275 256 235 234 238 237 235 240 253 262 266 286 301 307 310 308 303 294 283 270 266 260 257 257 256 249 243 226 212 216 224 229 224 216 209 203 194 184 182 183
171 189 196 245 242 242 249 239 234 240 242 249 262 267 271 284 290 295 296 297 299 300 298 297 293 284 271 265 266 263 255 242 218 224 234 235 224 214 207 199 186 180 180 176
172 167 181 226 185 213 247 227 220 225 222 228 247 260 282 285 288 292 301 303 305 311 314 314 308 298 292 286 280 270 260 249 230 236 241 234 223 215 205 190 184 186 184 177
166 155 180 208 164 226 238 202 207 222 231 228 237 257 269 274 283 279 284 310 319 320 316 313 313 315 315 312 309 304 296 268 243 242 243 233 219 213 198 188 192 190 180 182
198 177 192 201 226 260 271 240 215 222 240 235 242 272 313 318 308 283 2 351 326 319 318 316 316 319 323 327 327 316 299 282 260 251 245 232 214 207 197 196 192 183 177 180
207 197 200 210 217 231 243 241 246 214 242 13 25 344 343 0 325 295 352 341 333 331 329 325 326 329 324 323 324 309 295 287 273 264 252 229 205 199 199 194 182 169 167 172
178 199 215 221 231 251 257 233 139 200 222 203 14 335 329 282 249 284 311 314 318 319 323 329 330 325 318 321 321 305 303 295 294 291 271 204 179 179 174 161 150 144 143 146
178 186 201 208 225 241 223 132 173 181 163 195 258 280 280 274 281 292 299 300 306 312 319 326 319 313 320 329 324 308 304 309 319 330 16 104 128 133 134 133 129 131 137 142
206 199 191 197 212 197 143 146 154 150 278 281 274 280 284 289 290 294 296 295 293 295 299 304 299 304 319 335 337 309 310 321 337 46 74 93 101 105 119 130 135 132 137 145
229 202 215 250 250 238 263 221 216 211 243 267 270 276 277 279 283 286 287 288 289 287 289 294 297 299 313 336 340 322 315 319 330 100 101 107 113 110 108 116 131 138 145 152
213 191 215 244 269 307 290 271 263 283 282 283 280 270 265 274 279 278 282 284 283 281 283 283 280 288 305 330 335 340 333 330 347 124 122 114 110 116 111 109 115 123 119 145
214 205 212 238 248 254 269 285 296 297 291 285 285 285 274 261 270 277 278 280 279 275 276 278 279 288 314 333 340 345 340 331 306 168 139 128 127 122 119 116 99 94 99 101